Satellite: NOAA-12 Catalog number: 21263 Epoch time: 14023.51059567 Element set: 140 Inclination: 098.6783 deg RA of node: 051.9267 deg Eccentricity: 0.0012785 Arg of perigee: 300.3817 deg Mean anomaly: 197.2288 deg Mean motion: 14.25619322 rev/day Decay rate: 9.6e-07 rev/day^2 Epoch rev: 17994 Checksum: 314
Satellite: MET-3/5 Catalog number: 21655 Epoch time: 14022.79554840 Element set: 886 Inclination: 082.5562 deg RA of node: 099.1546 deg Eccentricity: 0.0012070 Arg of perigee: 301.8529 deg Mean anomaly: 058.1418 deg Mean motion: 13.17052490 rev/day Decay rate: -6.7e-07 rev/day^2 Epoch rev: 7884 Checksum: 311
Satellite: MET-2/21 Catalog number: 22782 Epoch time: 14023.66729285 Element set: 958 Inclination: 082.5504 deg RA of node: 287.9741 deg Eccentricity: 0.0021273 Arg of perigee: 312.6851 deg Mean anomaly: 107.7992 deg Mean motion: 13.83723892 rev/day Decay rate: 2.0e-07 rev/day^2 Epoch rev: 3013 Checksum: 307
Satellite: OKEAN-4 Catalog number: 23317 Epoch time: 14023.65341822 Element set: 437 Inclination: 082.5375 deg RA of node: 203.3751 deg Eccentricity: 0.0020387 Arg of perigee: 214.5263 deg Mean anomaly: 253.8218 deg Mean motion: 14.84999305 rev/day Decay rate: 1.441e-05 rev/day^2 Epoch rev: 4165 Checksum: 285
Satellite: NOAA-14 Catalog number: 23455 Epoch time: 14023.35874565 Element set: 617 Inclination: 098.7875 deg RA of node: 109.3213 deg Eccentricity: 0.0010505 Arg of perigee: 093.5844 deg Mean anomaly: 307.9330 deg Mean motion: 14.13943769 rev/day Decay rate: 1.00e-06 rev/day^2 Epoch rev: 98348 Checksum: 313
Satellite: NOAA-15 Catalog number: 25338 Epoch time: 14023.56887240 Element set: 47 Inclination: 098.7429 deg RA of node: 017.7888 deg Eccentricity: 0.0009998 Arg of perigee: 204.1503 deg Mean anomaly: 155.9697 deg Mean motion: 14.25330255 rev/day Decay rate: 1.98e-06 rev/day^2 Epoch rev: 81624 Checksum: 337
Satellite: RESURS Catalog number: 25394 Epoch time: 14022.54309455 Element set: 571 Inclination: 098.3933 deg RA of node: 353.2033 deg Eccentricity: 0.0001032 Arg of perigee: 025.0169 deg Mean anomaly: 084.1331 deg Mean motion: 14.24362022 rev/day Decay rate: 4.1e-07 rev/day^2 Epoch rev: 80758 Checksum: 252
Satellite: FENGYUN1 Catalog number: 25730 Epoch time: 14022.47798569 Element set: 63 Inclination: 098.9013 deg RA of node: 344.6275 deg Eccentricity: 0.0026922 Arg of perigee: 155.5865 deg Mean anomaly: 319.9789 deg Mean motion: 14.11252938 rev/day Decay rate: 1.261e-05 rev/day^2 Epoch rev: 75696 Checksum: 341
Satellite: OKEAN-0 Catalog number: 25860 Epoch time: 14023.50303811 Element set: 155 Inclination: 098.0233 deg RA of node: 348.4271 deg Eccentricity: 0.0001830 Arg of perigee: 121.8664 deg Mean anomaly: 017.5795 deg Mean motion: 14.74921607 rev/day Decay rate: 7.13e-06 rev/day^2 Epoch rev: 78082 Checksum: 278
Satellite: NOAA-16 Catalog number: 26536 Epoch time: 14023.77083758 Element set: 535 Inclination: 099.0117 deg RA of node: 083.3707 deg Eccentricity: 0.0009942 Arg of perigee: 230.6398 deg Mean anomaly: 129.4365 deg Mean motion: 14.12975957 rev/day Decay rate: 1.96e-06 rev/day^2 Epoch rev: 68772 Checksum: 343
Satellite: NOAA-17 Catalog number: 27453 Epoch time: 14023.87157147 Element set: 439 Inclination: 098.3113 deg RA of node: 031.2130 deg Eccentricity: 0.0010696 Arg of perigee: 236.8769 deg Mean anomaly: 123.1870 deg Mean motion: 14.24676546 rev/day Decay rate: 1.43e-06 rev/day^2 Epoch rev: 60214 Checksum: 291
Satellite: NOAA-18 Catalog number: 28654 Epoch time: 14023.55264483 Element set: 927 Inclination: 099.1312 deg RA of node: 000.2868 deg Eccentricity: 0.0013519 Arg of perigee: 312.5622 deg Mean anomaly: 153.5520 deg Mean motion: 14.11931444 rev/day Decay rate: 2.76e-06 rev/day^2 Epoch rev: 44715 Checksum: 287
Satellite: NOAA-19 Catalog number: 33591 Epoch time: 14023.81282204 Element set: 98 Inclination: 098.9286 deg RA of node: 329.4060 deg Eccentricity: 0.0014001 Arg of perigee: 163.6880 deg Mean anomaly: 196.5228 deg Mean motion: 14.11626418 rev/day Decay rate: 3.63e-06 rev/day^2 Epoch rev: 25562 Checksum: 298
/EX SB KEPS @ AMSAT $ORB14023.M Orbital Elements 14023.MISC
HR AMSAT ORBITAL ELEMENTS FOR MANNED AND MISCELLANEOUS SATELLITES FROM WA5QGD FORT WORTH,TX January 23, 2014 BID: ORB14023.M TO ALL RADIO AMATEURS BT
Satellite: HUBBLE Catalog number: 20580 Epoch time: 14022.11323434 Element set: 421 Inclination: 028.4694 deg RA of node: 276.8013 deg Eccentricity: 0.0002944 Arg of perigee: 163.9132 deg Mean anomaly: 312.9806 deg Mean motion: 15.04545523 rev/day Decay rate: 2.070e-05 rev/day^2 Epoch rev: 10269 Checksum: 254
Satellite: ISS Catalog number: 25544 Epoch time: 14024.04540488 Element set: 534 Inclination: 051.6494 deg RA of node: 094.0545 deg Eccentricity: 0.0003731 Arg of perigee: 068.5659 deg Mean anomaly: 001.0173 deg Mean motion: 15.49893920 rev/day Decay rate: 1.2019e-04 rev/day^2 Epoch rev: 86896 Checksum: 304
Satellite: CO-58 Catalog number: 28895 Epoch time: 14023.56823074 Element set: 678 Inclination: 097.8464 deg RA of node: 232.8651 deg Eccentricity: 0.0018803 Arg of perigee: 106.8089 deg Mean anomaly: 253.5178 deg Mean motion: 14.61508566 rev/day Decay rate: 8.43e-06 rev/day^2 Epoch rev: 43912 Checksum: 345
Satellite: FALCON Catalog number: 30776 Epoch time: 14022.21295865 Element set: 786 Inclination: 035.4304 deg RA of node: 295.6495 deg Eccentricity: 0.0001308 Arg of perigee: 314.2362 deg Mean anomaly: 176.1247 deg Mean motion: 15.13321796 rev/day Decay rate: 7.540e-05 rev/day^2 Epoch rev: 37858 Checksum: 304
Satellite: MAST Catalog number: 31126 Epoch time: 14023.53694837 Element set: 955 Inclination: 097.9001 deg RA of node: 012.1228 deg Eccentricity: 0.0094094 Arg of perigee: 085.8143 deg Mean anomaly: 036.9101 deg Mean motion: 14.54911362 rev/day Decay rate: 7.92e-06 rev/day^2 Epoch rev: 35935 Checksum: 292
Satellite: CAPE1 Catalog number: 31130 Epoch time: 14023.51347459 Element set: 960 Inclination: 097.9200 deg RA of node: 008.5957 deg Eccentricity: 0.0101276 Arg of perigee: 102.7193 deg Mean anomaly: 258.5348 deg Mean motion: 14.53942167 rev/day Decay rate: 9.20e-06 rev/day^2 Epoch rev: 35878 Checksum: 301
Satellite: COMPASS Catalog number: 32787 Epoch time: 14022.78601399 Element set: 838 Inclination: 097.7234 deg RA of node: 080.4377 deg Eccentricity: 0.0013081 Arg of perigee: 303.5129 deg Mean anomaly: 056.4837 deg Mean motion: 14.86682385 rev/day Decay rate: 2.272e-05 rev/day^2 Epoch rev: 31057 Checksum: 316
Satellite: AAUSAT2 Catalog number: 32788 Epoch time: 14022.78672952 Element set: 822 Inclination: 097.7244 deg RA of node: 081.2632 deg Eccentricity: 0.0012594 Arg of perigee: 302.3849 deg Mean anomaly: 057.6149 deg Mean motion: 14.87263431 rev/day Decay rate: 2.445e-05 rev/day^2 Epoch rev: 31062 Checksum: 308
Satellite: DO-64 Catalog number: 32789 Epoch time: 14022.84174516 Element set: 859 Inclination: 097.7410 deg RA of node: 086.5534 deg Eccentricity: 0.0011750 Arg of perigee: 290.3101 deg Mean anomaly: 123.5538 deg Mean motion: 14.90866482 rev/day Decay rate: 5.749e-05 rev/day^2 Epoch rev: 31082 Checksum: 318
Satellite: CO-66 Catalog number: 32791 Epoch time: 14023.63277302 Element set: 818 Inclination: 097.7233 deg RA of node: 080.3005 deg Eccentricity: 0.0013535 Arg of perigee: 303.1536 deg Mean anomaly: 056.8380 deg Mean motion: 14.85597889 rev/day Decay rate: 1.754e-05 rev/day^2 Epoch rev: 31058 Checksum: 313
Satellite: RS-30 Catalog number: 32953 Epoch time: 14023.75684179 Element set: 585 Inclination: 082.5048 deg RA of node: 291.0241 deg Eccentricity: 0.0019270 Arg of perigee: 109.0512 deg Mean anomaly: 251.2658 deg Mean motion: 12.43041810 rev/day Decay rate: 1.0e-07 rev/day^2 Epoch rev: 25731 Checksum: 266
Satellite: METEOR-M Catalog number: 35865 Epoch time: 14023.76083862 Element set: 193 Inclination: 098.5724 deg RA of node: 075.4091 deg Eccentricity: 0.0002625 Arg of perigee: 137.0208 deg Mean anomaly: 223.1177 deg Mean motion: 14.21905372 rev/day Decay rate: -2.1e-07 rev/day^2 Epoch rev: 22581 Checksum: 277
Satellite: RS-38 Catalog number: 35869 Epoch time: 14023.75466792 Element set: 143 Inclination: 098.5654 deg RA of node: 075.2494 deg Eccentricity: 0.0004941 Arg of perigee: 147.6699 deg Mean anomaly: 212.4784 deg Mean motion: 14.22173852 rev/day Decay rate: 5.2e-07 rev/day^2 Epoch rev: 22584 Checksum: 336
Satellite: JUGNU Catalog number: 37839 Epoch time: 14021.50362170 Element set: 547 Inclination: 019.9628 deg RA of node: 063.8946 deg Eccentricity: 0.0018887 Arg of perigee: 167.5977 deg Mean anomaly: 305.3306 deg Mean motion: 14.12234897 rev/day Decay rate: 4.20e-06 rev/day^2 Epoch rev: 11779 Checksum: 324
Satellite: SRMSAT Catalog number: 37841 Epoch time: 14022.28081015 Element set: 546 Inclination: 019.9731 deg RA of node: 075.5863 deg Eccentricity: 0.0011925 Arg of perigee: 121.0394 deg Mean anomaly: 321.2154 deg Mean motion: 14.10290267 rev/day Decay rate: 3.87e-06 rev/day^2 Epoch rev: 11773 Checksum: 270
Satellite: RAX-2 Catalog number: 37853 Epoch time: 14023.79289660 Element set: 704 Inclination: 101.7091 deg RA of node: 344.9900 deg Eccentricity: 0.0226313 Arg of perigee: 113.5913 deg Mean anomaly: 308.1380 deg Mean motion: 14.86355012 rev/day Decay rate: 4.936e-05 rev/day^2 Epoch rev: 12118 Checksum: 286
Satellite: AUBIESAT Catalog number: 37854 Epoch time: 14023.50283398 Element set: 689 Inclination: 101.7134 deg RA of node: 345.9555 deg Eccentricity: 0.0225337 Arg of perigee: 112.3381 deg Mean anomaly: 010.0574 deg Mean motion: 14.87339086 rev/day Decay rate: 5.600e-05 rev/day^2 Epoch rev: 12117 Checksum: 289
